Date String (YYYY-MM-DD hh:mm:ss) UTC,Instrument flags,absolute air pressure of the measurement (hPa),sample flow rate (lpm),inlet stack bypass flow (lpm),air temperature of the measurement (°C),ambient temperature measured by the external sensor (°C),aerosol sample conditioner tube jacket temperature (°C),OPC LED temperature (°C),internal box temperature (°C),relative humidity of the measurement (%),span deviation,mass concentration of particles derived from Lorenz-Mie calculation of OPC scattering (μg/m³),mass concentration of particles derived from Lorenz-Mie calculation of OPC scattering (μg/m³),mass concentration of particles derived from Lorenz-Mie calculation of OPC scattering (μg/m³)
DateTimeUTC,F1_M11,P_M11,Q1_M11,Q2_M11,T1_M11,T2_M11,T3_M11,T4_M11,T5_M11,U1_M11,ZSPAN_M11,X2_M11,X0_M11,X1_M11
2023-06-02 17:00:00,SystemResetWarning,0828.0,5.00,000.00,029.6,026.9,000.0,038.1,031.1,25.3,0000.0,0002.24,0004.06,0001.61
2023-06-02 17:01:00,SystemResetWarning,0828.0,4.99,000.00,029.6,027.2,000.0,038.1,031.1,24.4,0000.0,0002.22,0003.93,0001.61
2023-06-02 17:02:00,SystemResetWarning,0828.0,4.99,000.00,029.6,027.4,000.0,038.1,031.2,23.7,0000.0,0002.23,0003.89,0001.60
2023-06-02 17:03:00,SystemResetWarning,0828.1,5.00,000.00,029.6,027.5,000.0,038.1,031.2,23.4,0000.0,0002.20,0003.88,0001.60
2023-06-02 17:04:00,SystemResetWarning,0828.1,5.00,000.00,029.6,027.6,000.0,038.0,031.2,23.7,0000.0,0002.16,0003.80,0001.58
2023-06-02 17:05:00,SystemResetWarning,0828.1,5.00,000.00,029.6,027.7,000.0,038.0,031.2,23.4,0000.0,0002.20,0003.85,0001.57
2023-06-02 17:06:00,SystemResetWarning,0828.1,5.00,000.00,029.6,027.8,000.0,038.0,031.2,23.2,0000.0,0002.23,0003.96,0001.57
2023-06-02 17:07:00,SystemResetWarning,0828.1,5.00,000.00,029.6,027.9,000.0,038.0,031.2,23.9,0000.0,0002.25,0003.95,0001.57
2023-06-02 17:08:00,SystemResetWarning,0828.1,5.00,000.00,029.6,027.9,000.0,038.0,031.2,24.0,0000.0,0002.23,0003.69,0001.57
2023-06-02 17:09:00,SystemResetWarning,0828.1,5.00,000.00,029.6,028.0,000.0,038.0,031.2,23.7,0000.0,0002.21,0003.51,0001.57
2023-06-02 17:10:00,SystemResetWarning,0828.1,5.00,000.00,029.6,028.0,000.0,038.0,031.3,23.6,0000.0,0002.21,0003.49,0001.57
2023-06-02 17:11:00,SystemResetWarning,0828.0,4.99,000.00,029.6,028.0,000.0,038.0,031.3,23.9,0000.0,0002.23,0003.57,0001.56
2023-06-02 17:12:00,SystemResetWarning,0828.1,5.00,000.00,029.7,028.1,000.0,038.0,031.3,23.4,0000.0,0002.19,0003.54,0001.56
2023-06-02 17:13:00,SystemResetWarning,0828.1,5.00,000.00,029.7,028.1,000.0,038.0,031.3,23.8,0000.0,0002.19,0003.61,0001.56
2023-06-02 17:14:00,SystemResetWarning,0828.1,5.01,000.00,029.7,028.1,000.0,038.0,031.3,24.3,0000.0,0002.19,0003.58,0001.55
2023-06-02 17:15:00,SystemResetWarning,0828.1,5.00,000.00,029.7,028.2,000.0,038.0,031.3,25.1,0000.0,0002.28,0004.50,0001.56
2023-06-02 17:16:00,SystemResetWarning,0828.1,5.00,000.00,029.7,028.2,000.0,038.0,031.4,24.3,0000.0,0002.28,0004.58,0001.56
2023-06-02 17:17:00,SystemResetWarning,0828.1,5.00,000.00,029.7,028.3,000.0,038.1,031.4,24.4,0000.0,0002.26,0004.56,0001.55
2023-06-02 17:18:00,SystemResetWarning,0828.1,5.00,000.00,029.7,028.3,000.0,038.1,031.4,24.7,0000.0,0002.22,0004.49,0001.55
2023-06-02 17:19:00,SystemResetWarning,0828.0,5.00,000.00,029.7,028.3,000.0,038.1,031.4,23.7,0000.0,0002.18,0004.31,0001.56
2023-06-02 17:20:00,SystemResetWarning,0828.1,5.00,000.00,029.7,028.3,000.0,038.1,031.4,24.2,0000.0,0002.20,0004.35,0001.57
2023-06-02 17:21:00,SystemResetWarning,0828.1,5.00,000.00,029.7,028.2,000.0,038.1,031.4,24.0,0000.0,0002.23,0004.44,0001.56
2023-06-02 17:22:00,SystemResetWarning,0828.1,5.00,000.00,029.7,028.2,000.0,038.1,031.3,25.0,0000.0,0002.23,0004.40,0001.57
2023-06-02 17:23:00,SystemResetWarning,0828.1,5.00,000.00,029.7,028.2,000.0,038.1,031.3,25.2,0000.0,0002.24,0004.42,0001.57
2023-06-02 17:24:00,SystemResetWarning,0828.1,5.00,000.00,029.7,028.2,000.0,038.1,031.3,25.1,0000.0,0002.28,0004.48,0001.57
2023-06-02 17:25:00,SystemResetWarning,0828.0,5.01,000.00,029.7,028.2,000.0,038.1,031.3,25.3,0000.0,0002.28,0004.50,0001.57
2023-06-02 17:26:00,SystemResetWarning,0828.1,5.00,000.00,029.7,028.1,000.0,038.1,031.3,25.3,0000.0,0002.25,0003.88,0001.56
2023-06-02 17:27:00,SystemResetWarning,0828.1,5.01,000.00,029.7,028.1,000.0,038.1,031.3,25.6,0000.0,0002.22,0003.72,0001.55
2023-06-02 17:28:00,SystemResetWarning,0828.0,5.00,000.00,029.7,028.1,000.0,038.1,031.3,25.3,0000.0,0002.22,0003.73,0001.55
2023-06-02 17:29:00,SystemResetWarning,0828.1,5.00,000.00,029.7,028.1,000.0,038.1,031.3,25.5,0000.0,0002.25,0003.72,0001.55
2023-06-02 17:30:00,SystemResetWarning,0828.1,4.99,000.00,029.7,028.0,000.0,038.1,031.2,25.7,0000.0,0002.25,0003.76,0001.54
2023-06-02 17:31:00,SystemResetWarning,0828.1,5.00,000.00,029.6,028.0,000.0,038.1,031.2,26.2,0000.0,0002.22,0003.72,0001.52
2023-06-02 17:32:00,SystemResetWarning,0828.0,5.01,000.00,029.6,028.0,000.0,038.1,031.2,26.2,0000.0,0002.23,0003.76,0001.50
2023-06-02 17:33:00,SystemResetWarning,0828.0,5.01,000.00,029.6,028.0,000.0,038.1,031.2,25.4,0000.0,0002.23,0003.79,0001.48
2023-06-02 17:34:00,SystemResetWarning,0828.0,5.01,000.00,029.6,028.0,000.0,038.1,031.2,25.6,0000.0,0002.20,0003.79,0001.46
2023-06-02 17:35:00,SystemResetWarning,0828.1,5.01,000.00,029.6,028.0,000.0,038.1,031.2,25.8,0000.0,0002.19,0003.84,0001.46
2023-06-02 17:36:00,SystemResetWarning,0828.0,5.00,000.00,029.6,028.0,000.0,038.1,031.2,25.2,0000.0,0002.19,0003.90,0001.44
2023-06-02 17:37:00,SystemResetWarning,0828.1,5.00,000.00,029.6,028.0,000.0,038.1,031.2,25.5,0000.0,0002.13,0003.73,0001.42
2023-06-02 17:38:00,SystemResetWarning,0828.0,4.99,000.00,029.6,028.0,000.0,038.1,031.2,24.8,0000.0,0002.10,0003.66,0001.39
2023-06-02 17:39:00,SystemResetWarning,0828.1,5.00,000.00,029.6,028.0,000.0,038.1,031.2,25.3,0000.0,0002.10,0003.65,0001.36
2023-06-02 17:40:00,SystemResetWarning,0828.1,5.00,000.00,029.6,028.0,000.0,038.0,031.1,25.0,0000.0,0002.15,0003.80,0001.32
2023-06-02 17:41:00,SystemResetWarning,0828.1,5.01,000.00,029.6,028.0,000.0,038.0,031.1,23.6,0000.0,0002.13,0003.83,0001.28
2023-06-02 17:42:00,SystemResetWarning,0828.1,5.00,000.00,029.6,028.0,000.0,038.0,031.2,22.9,0000.0,0002.09,0003.76,0001.23
2023-06-02 17:43:00,SystemResetWarning,0828.1,5.00,000.00,029.6,028.0,000.0,038.0,031.2,21.9,0000.0,0001.96,0003.50,0001.18
2023-06-02 17:44:00,SystemResetWarning,0828.1,5.00,000.00,029.6,028.0,000.0,038.0,031.2,22.8,0000.0,0001.89,0003.99,0001.14
2023-06-02 17:45:00,SystemResetWarning,0828.1,5.00,000.00,029.6,028.0,000.0,038.0,031.2,23.8,0000.0,0001.86,0005.72,0001.11
2023-06-02 17:46:00,SystemResetWarning,0828.1,5.00,000.00,029.6,028.1,000.0,038.0,031.2,23.5,0000.0,0001.83,0005.75,0001.07
2023-06-02 17:47:00,SystemResetWarning,0828.1,5.00,000.00,029.6,028.1,000.0,038.0,031.2,23.2,0000.0,0001.82,0005.74,0001.04
2023-06-02 17:48:00,SystemResetWarning,0828.1,5.00,000.00,029.6,028.1,000.0,038.0,031.2,23.2,0000.0,0001.83,0005.90,0001.02
2023-06-02 17:49:00,SystemResetWarning,0828.1,5.00,000.00,029.6,028.1,000.0,038.0,031.2,23.1,0000.0,0001.80,0005.94,0001.01
2023-06-02 17:50:00,SystemResetWarning,0828.1,5.00,000.00,029.6,028.1,000.0,038.0,031.2,23.1,0000.0,0001.76,0005.94,0000.98
2023-06-02 17:51:00,SystemResetWarning,0828.1,4.99,000.00,029.6,028.0,000.0,038.0,031.2,23.1,0000.0,0001.62,0005.92,0000.94
2023-06-02 17:52:00,SystemResetWarning,0828.1,5.00,000.00,029.6,028.0,000.0,038.0,031.2,23.1,0000.0,0001.59,0006.74,0000.93
2023-06-02 17:53:00,SystemResetWarning,0828.1,5.00,000.00,029.6,028.0,000.0,038.0,031.1,22.5,0000.0,0001.60,0007.21,0000.93
2023-06-02 17:54:00,SystemResetWarning,0828.1,5.00,000.00,029.6,028.0,000.0,038.0,031.1,22.7,0000.0,0001.63,0007.51,0000.93
2023-06-02 17:55:00,SystemResetWarning,0828.1,5.00,000.00,029.5,028.0,000.0,038.0,031.1,23.7,0000.0,0001.60,0007.28,0000.93
2023-06-02 17:56:00,SystemResetWarning,0828.0,5.01,000.00,029.5,028.0,000.0,038.0,031.1,23.9,0000.0,0001.58,0005.30,0000.93
2023-06-02 17:57:00,SystemResetWarning,0828.0,5.00,000.00,029.5,028.0,000.0,038.0,031.1,23.2,0000.0,0001.58,0005.28,0000.93
2023-06-02 17:58:00,SystemResetWarning,0828.0,5.00,000.00,029.5,028.0,000.0,038.0,031.1,22.6,0000.0,0001.54,0005.25,0000.92
2023-06-02 17:59:00,SystemResetWarning,0828.0,5.00,000.00,029.5,027.9,000.0,038.0,031.1,23.6,0000.0,0001.48,0005.37,0000.90
